Location: Trout Lake
(45.9980°N, 121.5270°W)
Time: 18:55:43
(UTC-08:00)

Helios 1A - Pass Details

Date: 06 December 2023
Orbit: 569 x 584 km, 98.3° (Epoch: 21 February)

Event Time Altitude Azimuth Distance (km) Brightness Sun altitude
Exits shadow 17:01:56 - 35° (NE) 2,318 5.5 -7.0°
Reaches altitude 10° 17:03:09 10° 44° (NE) 1,920 5.0 -7.2°
Maximum altitude 17:06:17 20° 94° (E) 1,358 4.3 -7.7°
Drops below altitude 10° 17:09:23 10° 143° (SE) 1,900 5.4 -8.2°
Sets 17:11:59 0° 160° (SSE) 2,790 6.5 -8.6°
